Airfield :
LOGIN :

Register | Disclaimer

   EN    FR    IT 

 










Legend :    VFR   Marginal VFR   IFR   Intensive IFR   Very Intensive IFR
Visi :
Ceiling :
>= 8 km
>= 3000ft
5 to 8 km
1000 to 3000 ft
1500m to 5 km
500 to 1000 ft
800 to 1500m
200 to 500 ft
< 800m
< 200 ft
Symbols :   Thunderstorms  Fog  Heavy snow  Heavy precipitations  Wind > 20 kt
SIGMETs :     Misc.  Thunderstorms  Icing  Turbulence  Mountain Waves  Volcanic Ashes







- Airport Elevation : 46 ft
- IATA code : PAF


LPMT - Montijo Air Base

CURRENT METAR :
  • 250600Z 29004KT 250V330 9999 FEW015 BKN017 18/15 Q1015

EXPIRED METARs :
  • 250500Z 31004KT 260V330 9999 FEW015 BKN017 18/15 Q1015
  • 250400Z 29003KT 250V330 9999 BKN017 18/15 Q1015

TAF TAF LPMT
Valid from the 25 at 06:00 until the 26 at 06:00 UTC


250501Z 2506/2606 30005KT 9999 BKN018
PROB40 2506/2508 FEW008 BKN012
BECMG 2513/2516 32012KT CAVOK
BECMG 2522/2524 34005KT
No reported NOTAMs for that airfield.



MET'MAP, your aeronautical weather chart ! - Copyright ORBIFLY December 2007 - Disclaimer

ORBIFLY MET'MAP TEAM :

Programming & Development : Alexandra Zaïnal
Concept & Development : Baudouin d'Aumeries
Co-Development & Prog : Marc-Olivier Méhu
Technical & hardware support : Manuel Goepfert

Contact : metmap@orbifly.com




SOURCES & CREDITS :

   NOAA